Regional Weather Roundup
Issued by NWS

Home | Current Version | Previous Version | Graphics & Text | Print | Product List | Glossary On
Versions: 1 2 3 4 5 6 7 8 9 10 11 12 13 14 15 16 17 18 19 20 21 22 23 24 25 26 27 28 29 30 31 32 33 34 35 36 37 38 39 40 41 42 43 44 45 46 47 48 49 50
000
ASUS45 KSLC 130710
RWRUT

UTAH REGIONAL WEATHER ROUNDUP
NATIONAL WEATHER SERVICE SALT LAKE CITY UT
1200 AM MST SAT FEB 13 2016

UTZ001>011-023>025-130800-

NORTHERN UTAH

CITY           SKY/WX    TMP DP  RH WIND       PRES   REMARKS
BRIGHAM CITY   CLOUDY    25  24  93 CALM      30.35R VSB 1
HILL AFB       FOG       27  27 100 W5        30.30F VSB 1/2 WCI  22
LOGAN          FOG       22  22 100 N3        30.32S VSB 1/4
OGDEN          FOG       26  26 100 NW6       30.32R VSB 1/2 WCI  19
PROVO AIRPORT    N/A     19  18  93 CALM      30.31S VSB<1/4
SALT LAKE CITY CLOUDY    29  28  96 SW5       30.32S FOG     WCI  24
VERNAL         CLOUDY    22  18  85 W3        30.31F FOG
WENDOVER       CLOUDY    30  25  80 SE3       30.33S
HEBER CITY     PTCLDY    16  12  86 CALM      30.26F
WEST JORDAN    CLOUDY    28  28 100 CALM      30.32S

$$

UTZ012>022-026-027-130800-

SOUTHERN/CENTRAL UTAH

CITY           SKY/WX    TMP DP  RH WIND       PRES   REMARKS
BLANDING       PTCLDY    36  22  57 NE8       30.40S WCI  30
BRYCE CANYON   PTCLDY    13   8  81 W5        30.37F WCI   5
CEDAR CITY     MOCLDY    24  20  84 CALM      30.28S
DELTA          CLOUDY    16  15  95 CALM      30.32S VSB<1/4
HANKSVILLE     MOCLDY    32  30  93 CALM      30.33F
MILFORD        CLOUDY     8   7  95 S6        30.29S FOG     WCI  -2
MOAB/CYNLANDS  MOCLDY    32  28  85 CALM      30.31S
PRICE          MOCLDY    30  22  72 NE8       30.31F WCI  22
ST GEORGE      MOSUNNY   48  27  43 CALM      30.24R
KANAB          PTCLDY    43  28  56 NW14      30.32S

$$

REGIONAL REPORTS     COLORADO/ARIZONA

CITY           SKY/WX    TMP DP  RH WIND       PRES   REMARKS
CRAIG, CO      CLOUDY    11   7  84 W3        30.30F
GRAND JUNCTION CLOUDY    28  26  92 CALM      30.32S
RIFLE          CLOUDY    25  18  74 CALM      30.34F
MONTROSE       CLOUDY    31  24  75 S8        30.35F WCI  23
CORTEZ         CLOUDY    24  20  84 CALM      30.35F
PAGE, AZ       PTCLDY    42  30  62 CALM      30.29S
GRAND CANYON   PTCLDY    28  21  75 CALM      30.34F
KINGMAN        CLEAR     40  23  50 CALM      30.20S
FLAGSTAFF      PTCLDY    27  19  72 CALM      30.36S

$$

REGIONAL REPORTS    NEVADA/IDAHO/WYOMING

CITY           SKY/WX    TMP DP  RH WIND       PRES   REMARKS
LAS VEGAS, NV  PTCLDY    54  24  31 S5        30.12F
ELY            MOCLDY    24  16  71 S13       30.30S WCI  12
ELKO           MOCLDY    21  17  84 N6        30.29F WCI  13
POCATELLO, ID  CLOUDY    27  24  89 E5        30.22F WCI  22
BURLEY         MOCLDY    31  29  92 VRB3      30.18S
EVANSTON, WY   CLOUDY    37  14  38 S5        30.26F WCI  33
ROCK SPRINGS   CLOUDY    35  20  54 SW13      30.24F WCI  26

$$



USA.gov is the U.S. government's official web portal to all federal, state and local government web resources and services.